| time (UTC) | temp F | wind direction | speed MPH | gust MPH | rain 1hr in | rain 24hr in | rain mn in | humidity % | barometer mb |
| 20260905115039 | 76 | 161 | 0.0 | 0.0 | 0.00 | 0.00 | 0.00 | 99 | 1020.7 |
| 20260905114538 | 76 | 161 | 0.0 | 0.0 | 0.00 | 0.00 | 0.00 | 99 | 1020.6 |
| 20260905114038 | 76 | 161 | 0.0 | 0.0 | 0.00 | 0.00 | 0.00 | 99 | 1020.8 |
| 20260905113532 | 76 | 161 | 0.0 | 0.0 | 0.00 | 0.00 | 0.00 | 99 | 1020.5 |
| 20260905113028 | 76 | 162 | 0.0 | 0.0 | 0.00 | 0.00 | 0.00 | 99 | 1020.5 |
| 20260905112523 | 76 | 162 | 0.0 | 0.0 | 0.00 | 0.00 | 0.00 | 99 | 1020.4 |
| 20260905112019 | 76 | 162 | 0.0 | 0.0 | 0.00 | 0.00 | 0.00 | 99 | 1020.3 |
| 20260905111513 | 76 | 162 | 0.0 | 0.0 | 0.00 | 0.00 | 0.00 | 99 | 1020.2 |
| 20260905111013 | 76 | 162 | 0.0 | 0.0 | 0.00 | 0.00 | 0.00 | 99 | 1020.5 |
| 20260905110512 | 76 | 162 | 0.0 | 0.0 | 0.00 | 0.00 | 0.00 | 99 | 1020.4 |
| 20260905110007 | 76 | 162 | 0.0 | 0.0 | 0.00 | 0.00 | 0.00 | 99 | 1020.4 |
| 20260905105501 | 76 | 162 | 0.0 | 0.0 | 0.00 | 0.00 | 0.00 | 99 | 1020.1 |
| 20260905105001 | 76 | 162 | 0.0 | 0.0 | 0.00 | 0.00 | 0.00 | 99 | 1020.4 |
| 20260905104456 | 76 | 162 | 0.0 | 0.0 | 0.00 | 0.00 | 0.00 | 99 | 1020.3 |
| 20260905103951 | 76 | 163 | 0.0 | 0.0 | 0.00 | 0.00 | 0.00 | 99 | 1020.3 |
| 20260905103446 | 76 | 163 | 0.0 | 0.0 | 0.00 | 0.00 | 0.00 | 99 | 1020.1 |
| 20260905102942 | 76 | 163 | 0.0 | 0.0 | 0.00 | 0.00 | 0.00 | 99 | 1020.0 |
| 20260905102438 | 76 | 163 | 0.0 | 0.0 | 0.00 | 0.00 | 0.00 | 99 | 1019.9 |
| 20260905101933 | 76 | 165 | 0.0 | 0.0 | 0.00 | 0.00 | 0.00 | 99 | 1020.0 |
| 20260905101432 | 76 | 147 | 0.0 | 0.0 | 0.00 | 0.00 | 0.00 | 99 | 1020.1 |
| 20260905100927 | 76 | 144 | 0.0 | 0.0 | 0.00 | 0.00 | 0.00 | 99 | 1020.2 |
| 20260905100422 | 76 | 144 | 1.0 | 1.0 | 0.00 | 0.00 | 0.00 | 99 | 1019.8 |
| 20260905095921 | 76 | 118 | 0.0 | 1.0 | 0.00 | 0.00 | 0.00 | 99 | 1020.1 |
| 20260905095416 | 76 | 118 | 0.0 | 0.0 | 0.00 | 0.00 | 0.00 | 99 | 1020.0 |
| 20260905094911 | 76 | 117 | 0.0 | 0.0 | 0.00 | 0.00 | 0.00 | 99 | 1019.9 |
| 20260905094406 | 76 | 102 | 1.0 | 1.0 | 0.00 | 0.00 | 0.00 | 99 | 1020.0 |
| 20260905093904 | 76 | 89 | 1.0 | 2.0 | 0.00 | 0.00 | 0.00 | 99 | 1019.9 |
| 20260905093355 | 76 | 115 | 0.0 | 1.0 | 0.00 | 0.00 | 0.00 | 99 | 1019.8 |
| 20260905092850 | 76 | 123 | 0.0 | 0.0 | 0.00 | 0.00 | 0.00 | 99 | 1019.8 |
| 20260905092345 | 76 | 118 | 0.0 | 0.0 | 0.00 | 0.00 | 0.00 | 99 | 1019.8 |
| 20260905091840 | 76 | 117 | 0.0 | 0.0 | 0.00 | 0.00 | 0.00 | 99 | 1019.8 |
| 20260905091339 | 76 | 102 | 0.0 | 0.0 | 0.00 | 0.00 | 0.00 | 99 | 1019.6 |
| 20260905090838 | 76 | 125 | 0.0 | 0.0 | 0.00 | 0.00 | 0.00 | 99 | 1019.6 |
| 20260905090335 | 76 | 114 | 0.0 | 1.0 | 0.00 | 0.00 | 0.00 | 99 | 1019.8 |
| 20260905085833 | 76 | 113 | 0.0 | 0.0 | 0.00 | 0.00 | 0.00 | 99 | 1019.5 |
| 20260905085328 | 76 | 117 | 0.0 | 0.0 | 0.00 | 0.00 | 0.00 | 99 | 1019.6 |
| 20260905084824 | 76 | 149 | 0.0 | 0.0 | 0.00 | 0.00 | 0.00 | 99 | 1019.7 |
| 20260905084323 | 76 | 192 | 1.0 | 2.0 | 0.00 | 0.00 | 0.00 | 99 | 1019.7 |
| 20260905083818 | 76 | 158 | 0.0 | 0.0 | 0.00 | 0.00 | 0.00 | 99 | 1019.6 |
| 20260905083314 | 76 | 157 | 0.0 | 0.0 | 0.00 | 0.00 | 0.00 | 99 | 1019.6 |
| 20260905082809 | 76 | 161 | 0.0 | 2.0 | 0.00 | 0.00 | 0.00 | 99 | 1019.5 |
| 20260905082307 | 76 | 151 | 0.0 | 0.0 | 0.00 | 0.00 | 0.00 | 99 | 1019.6 |
| 20260905081805 | 76 | 164 | 0.0 | 0.0 | 0.00 | 0.00 | 0.00 | 99 | 1019.4 |
| 20260905081301 | 76 | 172 | 1.0 | 1.0 | 0.00 | 0.00 | 0.00 | 99 | 1019.7 |
| 20260905080759 | 76 | 167 | 1.0 | 2.0 | 0.00 | 0.00 | 0.00 | 99 | 1019.6 |
| 20260905080254 | 76 | 151 | 0.0 | 1.0 | 0.00 | 0.00 | 0.00 | 99 | 1019.5 |
| 20260905075752 | 76 | 168 | 0.0 | 1.0 | 0.00 | 0.00 | 0.00 | 99 | 1019.6 |
| 20260905075247 | 76 | 164 | 0.0 | 0.0 | 0.00 | 0.00 | 0.00 | 99 | 1019.5 |
| 20260905074746 | 76 | 165 | 0.0 | 0.0 | 0.00 | 0.00 | 0.00 | 99 | 1019.4 |
| 20260905074242 | 76 | 140 | 0.0 | 0.0 | 0.00 | 0.00 | 0.00 | 99 | 1019.5 |
| 20260905073737 | 76 | 140 | 0.0 | 0.0 | 0.00 | 0.00 | 0.00 | 99 | 1019.5 |
| 20260905073233 | 75 | 140 | 0.0 | 0.0 | 0.00 | 0.00 | 0.00 | 99 | 1019.5 |
| 20260905072732 | 75 | 140 | 0.0 | 0.0 | 0.00 | 0.00 | 0.00 | 99 | 1019.4 |
| 20260905072227 | 75 | 139 | 0.0 | 0.0 | 0.00 | 0.00 | 0.00 | 99 | 1019.6 |
| 20260905071724 | 75 | 139 | 0.0 | 0.0 | 0.00 | 0.00 | 0.00 | 99 | 1019.7 |
| 20260905071220 | 75 | 139 | 0.0 | 0.0 | 0.00 | 0.00 | 0.00 | 99 | 1019.7 |
| 20260905070714 | 75 | 139 | 0.0 | 0.0 | 0.00 | 0.00 | 0.00 | 99 | 1019.6 |
| 20260905070211 | 75 | 139 | 0.0 | 0.0 | 0.00 | 0.00 | 0.00 | 99 | 1019.8 |
| 20260905065709 | 75 | 139 | 0.0 | 0.0 | 0.00 | 0.00 | 0.00 | 99 | 1020.0 |
| 20260905065204 | 75 | 139 | 0.0 | 0.0 | 0.00 | 0.00 | 0.00 | 99 | 1020.0 |
| 20260905064659 | 75 | 139 | 0.0 | 0.0 | 0.00 | 0.00 | 0.00 | 99 | 1020.1 |
| 20260905064154 | 75 | 140 | 0.0 | 0.0 | 0.00 | 0.00 | 0.00 | 99 | 1019.9 |
| 20260905063653 | 75 | 140 | 0.0 | 1.0 | 0.00 | 0.00 | 0.00 | 99 | 1020.2 |
| 20260905063150 | 75 | 140 | 0.0 | 1.0 | 0.00 | 0.00 | 0.00 | 99 | 1019.9 |
| 20260905062645 | 75 | 140 | 1.0 | 1.0 | 0.00 | 0.00 | 0.00 | 99 | 1020.2 |
| 20260905062144 | 75 | 139 | 1.0 | 1.0 | 0.00 | 0.00 | 0.00 | 99 | 1020.4 |
| 20260905061639 | 75 | 139 | 0.0 | 0.0 | 0.00 | 0.00 | 0.00 | 99 | 1020.5 |
| 20260905061138 | 75 | 139 | 0.0 | 0.0 | 0.00 | 0.00 | 0.00 | 99 | 1020.4 |
| 20260905060634 | 75 | 138 | 0.0 | 0.0 | 0.00 | 0.00 | 0.00 | 99 | 1020.6 |
| 20260905060130 | 75 | 138 | 0.0 | 0.0 | 0.00 | 0.00 | 0.00 | 99 | 1020.7 |
| 20260905055628 | 75 | 138 | 0.0 | 1.0 | 0.00 | 0.00 | 0.00 | 99 | 1020.7 |
| 20260905055124 | 75 | 138 | 1.0 | 1.0 | 0.00 | 0.00 | 0.00 | 99 | 1020.5 |
| 20260905054620 | 75 | 138 | 0.0 | 0.0 | 0.00 | 0.00 | 0.00 | 99 | 1020.7 |
| 20260905054115 | 75 | 139 | 0.0 | 0.0 | 0.00 | 0.00 | 0.00 | 99 | 1020.7 |
| 20260905053614 | 75 | 138 | 0.0 | 0.0 | 0.00 | 0.00 | 0.00 | 99 | 1020.9 |
| 20260905053110 | 75 | 139 | 0.0 | 0.0 | 0.00 | 0.00 | 0.00 | 99 | 1020.8 |
| 20260905052609 | 75 | 138 | 0.0 | 0.0 | 0.00 | 0.00 | 0.00 | 99 | 1021.0 |
| 20260905052104 | 76 | 156 | 0.0 | 0.0 | 0.00 | 0.00 | 0.00 | 99 | 1020.8 |
| 20260905051600 | 75 | 156 | 0.0 | 0.0 | 0.00 | 0.00 | 0.00 | 99 | 1020.7 |
| 20260905051056 | 75 | 156 | 0.0 | 0.0 | 0.00 | 0.00 | 0.00 | 99 | 1020.9 |
| 20260905050551 | 75 | 156 | 0.0 | 0.0 | 0.00 | 0.00 | 0.00 | 99 | 1020.8 |
| 20260905050043 | 75 | 156 | 0.0 | 0.0 | 0.00 | 0.00 | 0.00 | 99 | 1020.9 |
| 20260905045537 | 76 | 156 | 0.0 | 1.0 | 0.00 | 0.00 | 0.00 | 99 | 1020.8 |
| 20260905045032 | 76 | 157 | 0.0 | 0.0 | 0.00 | 0.00 | 0.00 | 99 | 1021.0 |
| 20260905044526 | 76 | 156 | 0.0 | 0.0 | 0.00 | 0.00 | 0.00 | 99 | 1021.0 |
| 20260905044021 | 76 | 174 | 1.0 | 2.0 | 0.00 | 0.00 | 0.00 | 99 | 1021.0 |
| 20260905043520 | 76 | 175 | 1.0 | 2.0 | 0.00 | 0.00 | 0.00 | 99 | 1021.1 |
| 20260905043015 | 76 | 165 | 2.0 | 2.0 | 0.00 | 0.00 | 0.00 | 99 | 1021.0 |
| 20260905042509 | 76 | 164 | 2.0 | 2.0 | 0.00 | 0.00 | 0.00 | 99 | 1021.2 |
| 20260905042004 | 76 | 157 | 1.0 | 1.0 | 0.00 | 0.00 | 0.00 | 99 | 1021.3 |
| 20260905041459 | 76 | 149 | 0.0 | 0.0 | 0.00 | 0.00 | 0.00 | 99 | 1021.3 |
| 20260905040954 | 75 | 149 | 0.0 | 1.0 | 0.00 | 0.00 | 0.00 | 99 | 1021.3 |
| 20260905040448 | 75 | 149 | 0.0 | 0.0 | 0.00 | 0.00 | 0.00 | 99 | 1021.2 |
| 20260905035947 | 76 | 149 | 0.0 | 0.0 | 0.00 | 0.00 | 0.00 | 99 | 1021.3 |
| 20260905035442 | 76 | 149 | 0.0 | 0.0 | 0.00 | 0.00 | 0.00 | 99 | 1021.3 |
| 20260905034939 | 76 | 149 | 0.0 | 0.0 | 0.00 | 0.00 | 0.00 | 99 | 1021.3 |
| 20260905034434 | 76 | 149 | 0.0 | 0.0 | 0.00 | 0.00 | 0.00 | 99 | 1021.4 |
| 20260905033933 | 76 | 149 | 0.0 | 0.0 | 0.00 | 0.00 | 0.00 | 99 | 1021.4 |
| 20260905033428 | 76 | 149 | 0.0 | 0.0 | 0.00 | 0.00 | 0.00 | 99 | 1021.5 |
| 20260905032928 | 76 | 149 | 0.0 | 0.0 | 0.00 | 0.00 | 0.00 | 99 | 1021.5 |
| 20260905032424 | 76 | 149 | 0.0 | 0.0 | 0.00 | 0.00 | 0.00 | 99 | 1021.5 |
| 20260905031919 | 76 | 149 | 0.0 | 0.0 | 0.00 | 0.00 | 0.00 | 99 | 1021.4 |
| 20260905031415 | 76 | 149 | 0.0 | 1.0 | 0.00 | 0.00 | 0.00 | 99 | 1021.5 |
| 20260905030910 | 76 | 149 | 0.0 | 0.0 | 0.00 | 0.00 | 0.00 | 99 | 1021.5 |
| 20260905030405 | 77 | 149 | 0.0 | 0.0 | 0.00 | 0.00 | 0.00 | 99 | 1021.8 |
| 20260905025904 | 77 | 149 | 0.0 | 0.0 | 0.00 | 0.00 | 0.00 | 99 | 1021.5 |
| 20260905025354 | 77 | 149 | 0.0 | 0.0 | 0.00 | 0.00 | 0.00 | 99 | 1021.7 |
| 20260905024850 | 77 | 149 | 0.0 | 0.0 | 0.00 | 0.00 | 0.00 | 99 | 1021.7 |
| 20260905024345 | 77 | 149 | 0.0 | 0.0 | 0.00 | 0.00 | 0.00 | 99 | 1021.7 |
| 20260905023840 | 77 | 149 | 0.0 | 1.0 | 0.00 | 0.00 | 0.00 | 99 | 1021.8 |
| 20260905023336 | 77 | 150 | 1.0 | 1.0 | 0.00 | 0.00 | 0.00 | 99 | 1021.9 |
| 20260905022834 | 77 | 150 | 1.0 | 1.0 | 0.00 | 0.00 | 0.00 | 99 | 1021.8 |
| 20260905022330 | 77 | 149 | 0.0 | 1.0 | 0.00 | 0.00 | 0.00 | 99 | 1021.8 |
| 20260905021824 | 77 | 147 | 1.0 | 1.0 | 0.00 | 0.00 | 0.00 | 99 | 1022.0 |
| 20260905021319 | 77 | 146 | 0.0 | 0.0 | 0.00 | 0.00 | 0.00 | 99 | 1021.9 |
| 20260905020814 | 77 | 146 | 0.0 | 0.0 | 0.00 | 0.00 | 0.00 | 99 | 1021.8 |
| 20260905020310 | 77 | 146 | 0.0 | 0.0 | 0.00 | 0.00 | 0.00 | 99 | 1022.1 |
| 20260905015808 | 77 | 146 | 0.0 | 0.0 | 0.00 | 0.00 | 0.00 | 99 | 1022.0 |
| 20260905015306 | 77 | 147 | 0.0 | 1.0 | 0.00 | 0.00 | 0.00 | 98 | 1021.6 |
| 20260905014802 | 77 | 147 | 1.0 | 1.0 | 0.00 | 0.00 | 0.00 | 98 | 1022.0 |
| 20260905014258 | 77 | 145 | 0.0 | 0.0 | 0.00 | 0.00 | 0.00 | 98 | 1022.0 |
| 20260905013753 | 77 | 145 | 0.0 | 0.0 | 0.00 | 0.00 | 0.00 | 98 | 1022.2 |
| 20260905013248 | 77 | 145 | 0.0 | 0.0 | 0.00 | 0.00 | 0.00 | 98 | 1022.1 |
| 20260905012743 | 77 | 145 | 0.0 | 1.0 | 0.00 | 0.00 | 0.00 | 98 | 1022.1 |
| 20260905012239 | 78 | 146 | 0.0 | 1.0 | 0.00 | 0.00 | 0.00 | 98 | 1021.9 |
| 20260905011730 | 78 | 147 | 0.0 | 1.0 | 0.00 | 0.00 | 0.00 | 98 | 1021.7 |
| 20260905011225 | 78 | 152 | 1.0 | 2.0 | 0.00 | 0.00 | 0.00 | 98 | 1021.8 |
| 20260905010720 | 78 | 159 | 1.0 | 2.0 | 0.00 | 0.00 | 0.00 | 97 | 1021.6 |
| 20260905010215 | 78 | 164 | 1.0 | 2.0 | 0.00 | 0.00 | 0.00 | 97 | 1021.6 |
| 20260905005712 | 78 | 166 | 1.0 | 2.0 | 0.00 | 0.00 | 0.00 | 97 | 1021.5 |
| 20260905005207 | 78 | 163 | 1.0 | 1.0 | 0.00 | 0.00 | 0.00 | 97 | 1021.7 |
| 20260905004701 | 78 | 161 | 1.0 | 1.0 | 0.00 | 0.00 | 0.00 | 96 | 1021.5 |
| 20260905004157 | 78 | 161 | 1.0 | 1.0 | 0.00 | 0.00 | 0.00 | 96 | 1021.3 |
| 20260905003652 | 78 | 162 | 1.0 | 2.0 | 0.00 | 0.00 | 0.00 | 96 | 1021.3 |
| 20260905003148 | 78 | 164 | 1.0 | 2.0 | 0.00 | 0.00 | 0.00 | 96 | 1021.4 |
| 20260905002643 | 79 | 172 | 1.0 | 2.0 | 0.00 | 0.00 | 0.00 | 95 | 1021.2 |
| 20260905002142 | 79 | 171 | 0.0 | 1.0 | 0.00 | 0.00 | 0.00 | 95 | 1021.2 |
| 20260905001638 | 79 | 171 | 0.0 | 1.0 | 0.00 | 0.00 | 0.00 | 95 | 1021.2 |
| 20260905001137 | 79 | 172 | 1.0 | 1.0 | 0.00 | 0.00 | 0.00 | 95 | 1021.1 |
| 20260905000633 | 79 | 146 | 0.0 | 1.0 | 0.00 | 0.00 | 0.00 | 94 | 1021.0 |
| 20260905000129 | 79 | 164 | 0.0 | 0.0 | 0.00 | 0.00 | 0.00 | 94 | 1021.0 |
| 20260904235628 | 79 | 168 | 1.0 | 2.0 | 0.00 | 0.00 | 0.00 | 94 | 1020.8 |
| 20260904235128 | 79 | 179 | 2.0 | 3.0 | 0.00 | 0.00 | 0.00 | 93 | 1021.1 |
| 20260904234623 | 79 | 174 | 1.0 | 3.0 | 0.00 | 0.00 | 0.00 | 93 | 1020.9 |
| 20260904234119 | 80 | 175 | 4.0 | 6.0 | 0.00 | 0.00 | 0.00 | 92 | 1020.6 |
| 20260904233614 | 80 | 191 | 3.0 | 5.0 | 0.00 | 0.00 | 0.00 | 91 | 1020.7 |
| 20260904233110 | 80 | 201 | 4.0 | 7.0 | 0.00 | 0.00 | 0.00 | 89 | 1020.7 |
| 20260904232606 | 80 | 199 | 3.0 | 7.0 | 0.00 | 0.00 | 0.00 | 89 | 1020.5 |
| 20260904232057 | 81 | 161 | 4.0 | 8.0 | 0.00 | 0.00 | 0.00 | 88 | 1020.7 |
| 20260904231553 | 82 | 160 | 6.0 | 9.0 | 0.00 | 0.00 | 0.00 | 87 | 1020.7 |
| 20260904231047 | 82 | 178 | 8.0 | 9.0 | 0.00 | 0.00 | 0.00 | 85 | 1020.9 |
| 20260904230547 | 83 | 151 | 8.0 | 11.0 | 0.00 | 0.00 | 0.00 | 83 | 1020.8 |
| 20260904230042 | 84 | 154 | 6.0 | 11.0 | 0.00 | 0.00 | 0.00 | 83 | 1020.7 |
| 20260904225540 | 84 | 164 | 9.0 | 13.0 | 0.00 | 0.00 | 0.00 | 84 | 1020.7 |
| 20260904225039 | 86 | 209 | 7.0 | 8.0 | 0.00 | 0.00 | 0.00 | 83 | 1020.5 |
| 20260904224534 | 86 | 192 | 5.0 | 6.0 | 0.00 | 0.00 | 0.00 | 82 | 1020.4 |
| 20260904224029 | 86 | 175 | 3.0 | 5.0 | 0.00 | 0.00 | 0.00 | 83 | 1020.5 |
| 20260904223528 | 86 | 176 | 6.0 | 8.0 | 0.00 | 0.00 | 0.00 | 81 | 1020.5 |
| 20260904223024 | 86 | 202 | 5.0 | 7.0 | 0.00 | 0.00 | 0.00 | 81 | 1020.4 |
| 20260904222519 | 86 | 206 | 8.0 | 8.0 | 0.00 | 0.00 | 0.00 | 81 | 1020.5 |
| 20260904222014 | 86 | 166 | 5.0 | 8.0 | 0.00 | 0.00 | 0.00 | 81 | 1020.2 |
| 20260904221508 | 86 | 171 | 5.0 | 7.0 | 0.00 | 0.00 | 0.00 | 82 | 1020.4 |
| 20260904221003 | 85 | 194 | 5.0 | 8.0 | 0.00 | 0.00 | 0.00 | 84 | 1020.4 |
| 20260904220502 | 85 | 183 | 6.0 | 7.0 | 0.00 | 0.00 | 0.00 | 84 | 1020.6 |
| 20260904215958 | 85 | 199 | 6.0 | 8.0 | 0.00 | 0.00 | 0.00 | 85 | 1020.6 |
| 20260904215454 | 85 | 174 | 3.0 | 7.0 | 0.00 | 0.00 | 0.00 | 87 | 1020.9 |
| 20260904214948 | 86 | 171 | 4.0 | 5.0 | 0.00 | 0.00 | 0.00 | 86 | 1020.7 |
| 20260904214443 | 86 | 185 | 3.0 | 7.0 | 0.00 | 0.00 | 0.00 | 86 | 1020.6 |
| 20260904213939 | 86 | 179 | 3.0 | 5.0 | 0.00 | 0.00 | 0.00 | 85 | 1020.5 |
| 20260904213432 | 86 | 166 | 5.0 | 7.0 | 0.00 | 0.00 | 0.00 | 84 | 1020.6 |
| 20260904212928 | 86 | 156 | 5.0 | 6.0 | 0.00 | 0.00 | 0.00 | 84 | 1020.6 |
| 20260904212428 | 85 | 182 | 4.0 | 5.0 | 0.00 | 0.00 | 0.00 | 87 | 1020.3 |
| 20260904211923 | 84 | 176 | 3.0 | 6.0 | 0.00 | 0.00 | 0.00 | 87 | 1020.6 |
| 20260904211418 | 84 | 167 | 3.0 | 3.0 | 0.00 | 0.00 | 0.00 | 88 | 1020.4 |
| 20260904210913 | 84 | 153 | 2.0 | 5.0 | 0.00 | 0.00 | 0.00 | 87 | 1020.6 |
| 20260904210412 | 84 | 164 | 5.0 | 7.0 | 0.00 | 0.00 | 0.00 | 87 | 1020.6 |
| 20260904205908 | 83 | 175 | 4.0 | 6.0 | 0.00 | 0.00 | 0.00 | 86 | 1020.6 |
| 20260904205404 | 83 | 165 | 4.0 | 7.0 | 0.00 | 0.00 | 0.00 | 85 | 1020.7 |
| 20260904204901 | 84 | 158 | 4.0 | 8.0 | 0.00 | 0.00 | 0.00 | 84 | 1020.6 |
| 20260904204357 | 84 | 123 | 6.0 | 10.0 | 0.00 | 0.00 | 0.00 | 84 | 1020.5 |
| 20260904203853 | 84 | 152 | 5.0 | 8.0 | 0.00 | 0.00 | 0.00 | 85 | 1020.6 |
| 20260904203349 | 83 | 124 | 3.0 | 8.0 | 0.00 | 0.00 | 0.00 | 86 | 1020.5 |
| 20260904202844 | 84 | 158 | 5.0 | 8.0 | 0.00 | 0.00 | 0.00 | 87 | 1020.9 |
| 20260904202340 | 83 | 183 | 7.0 | 10.0 | 0.00 | 0.00 | 0.00 | 87 | 1020.7 |
| 20260904201836 | 84 | 175 | 5.0 | 7.0 | 0.00 | 0.00 | 0.00 | 87 | 1020.9 |
| 20260904201336 | 83 | 105 | 6.0 | 8.0 | 0.00 | 0.00 | 0.00 | 87 | 1021.0 |
| 20260904200831 | 84 | 155 | 3.0 | 6.0 | 0.00 | 0.00 | 0.00 | 86 | 1021.0 |
| 20260904200329 | 84 | 146 | 2.0 | 5.0 | 0.00 | 0.00 | 0.00 | 85 | 1021.0 |
| 20260904195824 | 85 | 60 | 2.0 | 9.0 | 0.00 | 0.00 | 0.00 | 82 | 1021.1 |
| 20260904195323 | 86 | 172 | 3.0 | 8.0 | 0.00 | 0.00 | 0.00 | 79 | 1021.0 |
| 20260904194818 | 89 | 133 | 9.0 | 11.0 | 0.00 | 0.00 | 0.00 | 76 | 1020.8 |
| 20260904194317 | 90 | 98 | 4.0 | 6.0 | 0.00 | 0.00 | 0.00 | 72 | 1021.0 |
| 20260904193812 | 91 | 13 | 2.0 | 7.0 | 0.00 | 0.00 | 0.00 | 72 | 1021.1 |
| 20260904193308 | 92 | 92 | 2.0 | 5.0 | 0.00 | 0.00 | 0.00 | 71 | 1020.9 |
| 20260904192803 | 91 | 103 | 2.0 | 6.0 | 0.00 | 0.00 | 0.00 | 70 | 1021.0 |
| 20260904192258 | 91 | 113 | 1.0 | 6.0 | 0.00 | 0.00 | 0.00 | 69 | 1021.1 |
| 20260904191755 | 91 | 168 | 3.0 | 8.0 | 0.00 | 0.00 | 0.00 | 70 | 1021.0 |
| 20260904191251 | 91 | 184 | 5.0 | 6.0 | 0.00 | 0.00 | 0.00 | 70 | 1021.1 |
| 20260904190747 | 91 | 166 | 4.0 | 5.0 | 0.00 | 0.00 | 0.00 | 71 | 1021.2 |
| 20260904190243 | 90 | 117 | 3.0 | 5.0 | 0.00 | 0.00 | 0.00 | 70 | 1021.1 |
| 20260904185739 | 92 | 106 | 3.0 | 3.0 | 0.00 | 0.00 | 0.00 | 69 | 1021.2 |
| 20260904185234 | 92 | 50 | 1.0 | 3.0 | 0.00 | 0.00 | 0.00 | 68 | 1021.3 |
| 20260904184732 | 91 | 209 | 1.0 | 2.0 | 0.00 | 0.00 | 0.00 | 71 | 1021.4 |
| 20260904184229 | 90 | 108 | 1.0 | 3.0 | 0.00 | 0.00 | 0.00 | 71 | 1021.6 |
| 20260904183724 | 89 | 202 | 3.0 | 5.0 | 0.00 | 0.00 | 0.00 | 72 | 1021.5 |
| 20260904183219 | 89 | 195 | 5.0 | 5.0 | 0.00 | 0.00 | 0.00 | 73 | 1021.4 |
| 20260904182714 | 89 | 145 | 3.0 | 6.0 | 0.00 | 0.00 | 0.00 | 77 | 1021.4 |
| 20260904182209 | 89 | 169 | 3.0 | 5.0 | 0.00 | 0.00 | 0.00 | 75 | 1021.5 |
| 20260904181705 | 89 | 189 | 3.0 | 3.0 | 0.00 | 0.00 | 0.00 | 73 | 1021.4 |
| 20260904181204 | 89 | 149 | 1.0 | 3.0 | 0.00 | 0.00 | 0.00 | 73 | 1021.7 |
| 20260904180700 | 88 | 154 | 0.0 | 2.0 | 0.00 | 0.00 | 0.00 | 73 | 1021.8 |
| 20260904180155 | 88 | 214 | 5.0 | 7.0 | 0.00 | 0.00 | 0.00 | 75 | 1021.9 |
| 20260904175654 | 89 | 185 | 3.0 | 6.0 | 0.00 | 0.00 | 0.00 | 74 | 1021.9 |
| 20260904175153 | 88 | 204 | 5.0 | 6.0 | 0.00 | 0.00 | 0.00 | 74 | 1021.8 |
| 20260904174647 | 87 | 179 | 5.0 | 7.0 | 0.00 | 0.00 | 0.00 | 75 | 1022.0 |
| 20260904174144 | 88 | 189 | 5.0 | 6.0 | 0.00 | 0.00 | 0.00 | 75 | 1022.1 |
| 20260904173639 | 88 | 145 | 0.0 | 2.0 | 0.00 | 0.00 | 0.00 | 73 | 1022.4 |
| 20260904173134 | 89 | 70 | 2.0 | 3.0 | 0.00 | 0.00 | 0.00 | 72 | 1022.2 |
| 20260904172630 | 88 | 102 | 1.0 | 1.0 | 0.00 | 0.00 | 0.00 | 73 | 1022.4 |
| 20260904172130 | 90 | 91 | 2.0 | 3.0 | 0.00 | 0.00 | 0.00 | 74 | 1022.3 |
| 20260904171625 | 88 | 141 | 0.0 | 2.0 | 0.00 | 0.00 | 0.00 | 77 | 1022.3 |
| 20260904171120 | 88 | 122 | 2.0 | 3.0 | 0.00 | 0.00 | 0.00 | 76 | 1022.4 |
| 20260904170616 | 88 | 103 | 1.0 | 3.0 | 0.00 | 0.00 | 0.00 | 77 | 1022.6 |
| 20260904170112 | 88 | 114 | 1.0 | 5.0 | 0.00 | 0.00 | 0.00 | 76 | 1022.7 |
| 20260904165611 | 88 | 125 | 0.0 | 5.0 | 0.00 | 0.00 | 0.00 | 76 | 1022.7 |
| 20260904165110 | 89 | 83 | 2.0 | 2.0 | 0.00 | 0.00 | 0.00 | 74 | 1022.7 |
| 20260904164605 | 89 | 81 | 2.0 | 2.0 | 0.00 | 0.00 | 0.00 | 74 | 1022.8 |
| 20260904164100 | 90 | 104 | 1.0 | 3.0 | 0.00 | 0.00 | 0.00 | 74 | 1022.8 |
| 20260904163555 | 88 | 27 | 3.0 | 3.0 | 0.00 | 0.00 | 0.00 | 75 | 1023.1 |
| 20260904163050 | 88 | 89 | 1.0 | 3.0 | 0.00 | 0.00 | 0.00 | 76 | 1023.2 |
| 20260904162544 | 89 | 83 | 2.0 | 3.0 | 0.00 | 0.00 | 0.00 | 77 | 1023.0 |
| 20260904162040 | 88 | 117 | 1.0 | 2.0 | 0.00 | 0.00 | 0.00 | 76 | 1023.2 |
| 20260904161535 | 88 | 79 | 1.0 | 2.0 | 0.00 | 0.00 | 0.00 | 78 | 1023.3 |
| 20260904161030 | 87 | 14 | 2.0 | 3.0 | 0.00 | 0.00 | 0.00 | 75 | 1023.4 |
| 20260904160525 | 87 | 99 | 2.0 | 2.0 | 0.00 | 0.00 | 0.00 | 79 | 1023.4 |
| 20260904160021 | 86 | 86 | 1.0 | 3.0 | 0.00 | 0.00 | 0.00 | 81 | 1023.3 |
| 20260904155515 | 87 | 56 | 2.0 | 3.0 | 0.00 | 0.00 | 0.00 | 80 | 1023.3 |
| 20260904155014 | 88 | 125 | 0.0 | 1.0 | 0.00 | 0.00 | 0.00 | 79 | 1023.2 |
| 20260904154508 | 88 | 127 | 1.0 | 2.0 | 0.00 | 0.00 | 0.00 | 77 | 1023.3 |
| 20260904154003 | 87 | 38 | 4.0 | 6.0 | 0.00 | 0.00 | 0.00 | 81 | 1023.3 |
| 20260904153458 | 88 | 69 | 3.0 | 6.0 | 0.00 | 0.00 | 0.00 | 80 | 1023.1 |
| 20260904152954 | 87 | 41 | 3.0 | 5.0 | 0.00 | 0.00 | 0.00 | 81 | 1023.2 |
| 20260904152449 | 86 | 18 | 3.0 | 5.0 | 0.00 | 0.00 | 0.00 | 82 | 1023.1 |
| 20260904151949 | 85 | 161 | 0.0 | 2.0 | 0.00 | 0.00 | 0.00 | 82 | 1023.2 |
| 20260904151444 | 85 | 114 | 1.0 | 2.0 | 0.00 | 0.00 | 0.00 | 84 | 1023.0 |
| 20260904150939 | 84 | 155 | 1.0 | 1.0 | 0.00 | 0.00 | 0.00 | 86 | 1023.1 |
| 20260904150434 | 83 | 122 | 2.0 | 3.0 | 0.00 | 0.00 | 0.00 | 87 | 1023.1 |
| 20260904145931 | 83 | 330 | 3.0 | 3.0 | 0.00 | 0.00 | 0.00 | 88 | 1023.1 |
| 20260904145423 | 84 | 176 | 1.0 | 2.0 | 0.00 | 0.00 | 0.00 | 87 | 1022.9 |
| 20260904144918 | 83 | 110 | 2.0 | 2.0 | 0.00 | 0.00 | 0.00 | 88 | 1023.2 |
| 20260904144413 | 82 | 103 | 0.0 | 1.0 | 0.00 | 0.00 | 0.00 | 90 | 1023.1 |
| 20260904143909 | 82 | 112 | 1.0 | 3.0 | 0.00 | 0.00 | 0.00 | 91 | 1023.1 |
| 20260904143405 | 82 | 8 | 1.0 | 2.0 | 0.00 | 0.00 | 0.00 | 93 | 1023.1 |
| 20260904142901 | 81 | 129 | 0.0 | 2.0 | 0.00 | 0.00 | 0.00 | 96 | 1023.4 |
| 20260904142357 | 80 | 78 | 2.0 | 2.0 | 0.00 | 0.00 | 0.00 | 97 | 1023.3 |
| 20260904141856 | 80 | 123 | 1.0 | 2.0 | 0.00 | 0.00 | 0.00 | 98 | 1023.1 |
| 20260904141352 | 80 | 133 | 0.0 | 3.0 | 0.00 | 0.00 | 0.00 | 99 | 1023.2 |
| 20260904140848 | 79 | 126 | 1.0 | 2.0 | 0.00 | 0.00 | 0.00 | 99 | 1023.1 |
| 20260904140342 | 78 | 145 | 0.0 | 1.0 | 0.00 | 0.00 | 0.00 | 99 | 1023.1 |
| 20260904135837 | 78 | 119 | 1.0 | 2.0 | 0.00 | 0.00 | 0.00 | 99 | 1023.1 |
| 20260904135332 | 79 | 119 | 2.0 | 2.0 | 0.00 | 0.00 | 0.00 | 99 | 1023.0 |
| 20260904134828 | 79 | 121 | 0.0 | 0.0 | 0.00 | 0.00 | 0.00 | 99 | 1023.0 |
| 20260904134327 | 78 | 125 | 1.0 | 2.0 | 0.00 | 0.00 | 0.00 | 99 | 1023.2 |
| 20260904133822 | 78 | 162 | 1.0 | 3.0 | 0.00 | 0.00 | 0.00 | 99 | 1023.1 |
| 20260904133318 | 77 | 178 | 3.0 | 6.0 | 0.00 | 0.00 | 0.00 | 99 | 1023.3 |
| 20260904132818 | 77 | 179 | 4.0 | 5.0 | 0.00 | 0.00 | 0.00 | 99 | 1023.3 |
| 20260904132313 | 77 | 134 | 4.0 | 5.0 | 0.00 | 0.00 | 0.00 | 99 | 1023.1 |
| 20260904131812 | 77 | 92 | 1.0 | 2.0 | 0.00 | 0.00 | 0.00 | 99 | 1023.0 |
| 20260904131308 | 77 | 98 | 2.0 | 2.0 | 0.00 | 0.00 | 0.00 | 99 | 1023.1 |
| 20260904130807 | 77 | 100 | 2.0 | 3.0 | 0.00 | 0.00 | 0.00 | 99 | 1023.0 |
| 20260904130302 | 77 | 120 | 1.0 | 2.0 | 0.00 | 0.00 | 0.00 | 99 | 1023.0 |
| 20260904125757 | 76 | 118 | 1.0 | 2.0 | 0.00 | 0.00 | 0.00 | 99 | 1023.1 |
| 20260904125253 | 77 | 137 | 2.0 | 2.0 | 0.00 | 0.00 | 0.00 | 99 | 1023.1 |
| 20260904124747 | 77 | 112 | 0.0 | 0.0 | 0.00 | 0.00 | 0.00 | 99 | 1023.1 |
| 20260904124243 | 77 | 104 | 1.0 | 1.0 | 0.00 | 0.00 | 0.00 | 99 | 1022.9 |
| 20260904123738 | 77 | 119 | 0.0 | 1.0 | 0.00 | 0.00 | 0.00 | 99 | 1023.0 |
| 20260904123233 | 76 | 110 | 1.0 | 1.0 | 0.00 | 0.00 | 0.00 | 99 | 1022.9 |
| 20260904122728 | 76 | 107 | 0.0 | 1.0 | 0.00 | 0.00 | 0.00 | 99 | 1023.1 |
| 20260904122222 | 76 | 116 | 0.0 | 1.0 | 0.00 | 0.00 | 0.00 | 99 | 1023.1 |
| 20260904121718 | 76 | 103 | 0.0 | 0.0 | 0.00 | 0.00 | 0.00 | 99 | 1023.1 |
| 20260904121213 | 76 | 107 | 1.0 | 1.0 | 0.00 | 0.00 | 0.00 | 99 | 1023.0 |
| 20260904120709 | 76 | 120 | 0.0 | 1.0 | 0.00 | 0.00 | 0.00 | 99 | 1022.8 |
| 20260904120205 | 76 | 91 | 1.0 | 1.0 | 0.00 | 0.00 | 0.00 | 99 | 1022.9 |
| 20260904115701 | 76 | 105 | 1.0 | 1.0 | 0.00 | 0.00 | 0.00 | 99 | 1022.8 |